Location: Augsburg
(48.3677°N, 10.8923°E)
Time: 18:00:22
(UTC+01:00)

ISS - Visible Passes

Search period start: 14 December 2025 00:00
Search period end: 24 December 2025 00:00
Orbit: 416 x 420 km, 51.6° (Epoch: 13 December)

Date Brightness Start Highest point End Pass type
(mag) Time Alt. Az. Time Alt. Az. Time Alt. Az.
14 Dec -1.4 06:26:21 10° SSW 06:29:10 25° SE 06:32:00 10° E visible
15 Dec -0.9 05:39:06 10° S 05:41:20 17° SE 05:43:35 10° E visible
15 Dec -3.6 07:14:19 10° WSW 07:17:41 79° SSE 07:21:04 10° ENE visible
16 Dec -0.4 04:53:43 11° SE 04:53:43 11° SE 04:54:21 10° ESE visible
16 Dec -3.1 06:26:42 12° SW 06:29:42 54° SSE 06:33:01 10° ENE visible
17 Dec -2.5 05:41:17 34° SSE 05:41:44 36° SE 05:44:52 10° ENE visible
17 Dec -3.7 07:15:04 10° W 07:18:25 62° NNW 07:21:46 10° ENE visible
18 Dec -0.7 04:55:38 16° E 04:55:38 16° E 04:56:35 10° E visible
18 Dec -3.8 06:28:35 27° WSW 06:30:18 79° NNW 06:33:41 10° ENE visible
19 Dec -3.2 05:42:44 58° E 05:42:44 58° E 05:45:35 10° ENE visible
19 Dec -3.3 07:15:51 10° W 07:19:08 47° N 07:22:25 10° ENE visible
20 Dec -0.6 04:56:46 15° ENE 04:56:46 15° ENE 04:57:25 10° ENE visible
20 Dec -3.5 06:29:41 32° WNW 06:30:56 53° N 06:34:15 10° ENE visible
21 Dec -2.8 05:43:36 43° NE 05:43:36 43° NE 05:46:06 10° ENE visible
21 Dec -3.3 07:16:32 10° WNW 07:19:48 47° N 07:23:05 10° E visible
22 Dec -0.6 04:57:26 13° ENE 04:57:26 13° ENE 04:57:55 10° ENE visible
22 Dec -3.2 06:30:21 31° NW 06:31:32 46° N 06:34:48 10° ENE visible
23 Dec -2.6 05:44:07 37° NE 05:44:07 37° NE 05:46:33 10° ENE visible
23 Dec -3.5 07:17:02 10° WNW 07:20:20 61° NNE 07:23:40 10° E visible
